Theta_e
293 293 293 293 293 294 294 294 294 294 294 293 293 293 293 292 293 293 293 293 293 293 293 293 292 292 292 292 292 292 291 292 292 292 292 292 292 292 292 292 292 291 291 291 290 290 290 290 289 290 290 290 291 291 291 291 291 290 290 289 289 289 289 289 289 289 289 289 289 290 290 290 291 291 292 292 292 292 292 292 292 292 292 292 292 292
293 293 293 293 293 293 293 294 294 293 293 293 293 292 292 292 292 292 292 292 292 292 291 291 291 291 291 291 290 290 290 291 291 291 291 291 291 291 291 291 290 290 290 289 289 289 289 289 289 289 290 290 290 290 290 289 289 289 288 288 288 288 288 288 288 288 288 289 289 289 290 290 291 291 292 292 292 292 292 292 292 292 292 292 292 292
293 293 293 293 293 293 293 293 293 293 293 293 292 292 292 291 291 291 291 291 290 290 290 290 290 290 290 289 289 288 289 290 290 290 290 290 290 290 290 289 289 289 289 289 289 289 289 289 289 289 289 289 289 289 288 288 288 288 287 287 287 287 287 287 288 288 288 289 289 289 290 290 291 291 292 292 292 291 291 292 292 292 292 291 291 291
292 292 293 293 293 293 293 293 293 293 292 292 292 292 291 291 291 291 290 290 289 289 289 289 289 289 289 288 288 288 288 289 289 289 289 289 289 289 288 288 288 288 288 288 288 288 288 289 289 289 288 288 288 287 287 287 287 287 287 287 287 287 287 287 287 288 288 289 289 290 290 290 291 291 291 291 291 291 291 291 291 291 291 291 291 291
292 293 293 293 293 293 293 293 293 292 292 292 291 291 291 291 290 290 289 289 289 289 289 289 289 288 288 287 287 287 288 288 288 288 288 288 288 287 287 287 287 287 288 288 288 288 288 288 288 288 287 287 287 287 286 286 286 286 286 286 286 286 287 287 288 288 288 289 289 289 290 290 290 291 290 290 290 290 290 290 291 291 291 291 291 291
293 293 293 293 293 293 293 293 292 292 292 292 291 291 290 290 290 289 289 288 288 288 289 288 288 288 287 287 286 286 287 287 287 287 287 287 286 286 286 286 286 287 287 287 288 288 288 287 287 287 286 286 286 286 286 285 285 285 285 286 286 286 287 287 288 288 288 289 289 289 289 289 289 290 290 290 290 290 290 290 290 290 290 290 290 290
293 293 293 293 293 293 292 292 292 292 292 291 291 290 290 290 289 289 288 288 288 288 288 288 287 287 286 286 286 286 286 286 286 286 286 286 285 285 285 285 285 286 286 287 287 287 287 286 286 286 285 285 285 285 285 285 285 285 285 286 286 286 287 287 288 288 288 288 288 288 289 289 289 289 289 289 289 289 289 289 289 289 290 290 290 290
293 293 292 292 292 292 292 292 292 291 291 291 290 290 289 289 289 288 288 288 288 288 287 287 287 286 285 285 285 285 285 285 285 285 285 285 284 284 284 284 285 285 286 286 286 286 286 285 285 285 285 285 285 284 284 284 285 285 285 286 286 286 287 287 287 287 288 288 288 288 288 288 288 288 288 288 288 289 289 289 289 289 289 289 290 290
293 292 292 292 292 292 292 291 291 291 290 290 289 289 288 288 288 288 287 287 287 287 287 286 286 285 285 285 285 285 285 285 285 284 284 284 283 283 283 283 284 285 285 285 285 285 285 285 284 284 284 284 284 284 284 284 285 285 285 286 286 286 286 287 287 287 287 287 287 287 287 288 288 288 288 288 288 288 288 288 288 289 289 289 289 289
292 292 292 292 292 292 291 290 290 290 289 289 289 288 288 288 288 287 287 287 286 286 286 286 285 285 285 284 284 284 284 284 284 284 283 283 283 283 283 283 283 284 284 284 284 284 284 284 284 284 284 283 283 283 284 284 284 285 285 285 286 286 286 286 286 287 287 287 287 287 287 287 287 287 288 288 288 288 288 288 288 288 288 288 289 289
291 291 291 291 291 291 290 289 289 289 288 288 288 287 288 288 287 287 286 286 285 285 285 285 285 284 284 284 284 284 284 284 283 283 283 283 282 282 283 283 283 283 283 283 283 283 283 283 283 283 283 283 283 283 283 284 284 285 285 285 286 286 286 286 286 286 286 287 287 287 287 287 287 287 287 287 287 288 288 288 288 288 288 288 288 289
291 290 290 290 290 289 289 288 288 288 288 287 287 287 287 287 286 286 285 285 285 285 285 284 284 284 284 284 283 283 283 283 283 282 282 282 282 282 282 282 282 282 282 282 282 282 282 282 282 282 282 282 282 283 283 284 284 285 285 285 285 285 286 286 286 286 286 286 286 287 287 287 287 287 287 287 287 288 288 288 288 288 288 289 289 289
289 289 289 289 288 288 288 287 287 287 287 287 287 287 287 286 286 285 285 284 284 284 284 284 283 283 283 283 283 283 283 282 282 282 282 282 282 282 282 282 282 282 282 282 282 281 281 282 282 282 281 281 282 282 283 284 284 285 285 285 285 285 286 286 286 286 286 286 286 286 287 287 287 287 287 287 288 288 288 288 288 288 289 289 289 289
288 288 287 287 287 287 287 287 287 287 287 287 287 287 286 285 285 284 284 284 284 284 283 283 283 283 283 283 283 282 282 282 282 282 281 282 282 282 282 282 282 282 282 281 281 281 281 281 281 281 281 281 282 282 283 284 284 285 285 285 285 285 286 286 286 286 286 286 286 286 286 287 287 287 287 287 288 288 288 288 288 289 289 289 289 289
287 286 286 286 286 286 286 287 287 287 287 286 286 286 285 285 284 284 284 284 283 283 283 282 282 282 282 282 282 282 282 282 281 281 281 281 282 282 282 282 282 281 281 281 281 281 281 281 281 281 281 281 282 283 283 284 284 285 285 285 285 285 285 285 286 286 286 286 286 286 286 286 287 287 287 288 288 288 288 288 288 289 289 289 289 289
286 286 286 286 286 286 286 286 287 287 286 286 285 285 284 284 284 283 283 283 283 283 282 282 282 282 282 282 282 282 282 282 281 281 281 281 281 282 282 281 281 281 281 281 281 281 281 281 281 281 281 281 282 283 284 284 284 284 285 285 285 285 285 285 286 286 286 286 286 286 286 286 287 287 287 288 288 288 288 288 288 289 289 289 289 289
286 286 286 286 286 285 285 286 286 287 286 286 285 284 284 283 283 283 283 282 282 282 281 281 281 281 281 281 282 282 282 281 281 281 281 281 281 281 281 281 281 281 281 281 281 281 281 281 281 281 281 281 282 283 284 284 284 284 284 285 285 285 285 285 285 286 286 286 286 286 286 286 287 287 287 288 288 288 288 288 288 289 289 289 289 290
285 285 285 285 285 285 285 285 286 286 286 285 284 284 283 283 283 282 282 282 281 281 281 281 281 281 281 281 281 282 282 281 281 281 281 281 281 281 281 281 281 281 281 281 281 281 281 281 281 281 281 281 282 283 283 284 284 284 284 285 285 285 285 285 285 285 285 285 286 286 286 287 287 287 287 287 288 288 288 288 289 289 289 289 289 290
285 285 285 285 285 284 284 285 285 286 286 285 284 283 283 282 282 282 281 281 281 280 280 280 280 281 281 281 281 282 282 282 281 281 281 281 281 281 281 281 281 281 281 281 281 281 281 281 280 280 280 281 282 283 283 283 283 284 284 284 284 285 285 285 285 285 285 285 286 286 286 286 287 287 287 287 288 288 288 288 288 289 289 289 289 290
284 284 284 284 284 284 284 284 285 286 285 284 283 283 282 282 282 281 281 281 280 280 280 280 280 281 281 281 281 282 282 282 281 281 281 281 281 281 281 281 281 281 281 281 281 281 280 280 280 280 280 281 282 282 283 283 283 283 284 284 284 284 284 284 284 285 285 285 285 286 286 286 287 287 287 287 287 288 288 288 288 288 289 289 289 290
284 284 284 284 284 284 284 284 284 285 285 283 283 282 282 282 281 281 281 281 280 280 280 280 281 281 281 281 281 282 281 281 281 281 281 281 281 281 281 281 281 281 281 281 280 280 280 280 280 280 280 281 281 282 282 282 283 283 283 284 284 284 284 284 284 284 285 285 285 286 286 286 286 287 287 287 287 287 287 288 288 288 288 289 289 289
284 284 284 284 284 283 283 284 284 285 284 283 282 282 282 282 281 281 281 281 281 280 280 281 281 281 281 281 281 281 281 281 281 281 281 281 281 281 281 281 281 281 280 280 280 280 280 280 280 280 280 280 281 281 282 282 282 283 283 283 283 283 284 284 284 284 284 285 285 285 286 286 286 286 287 287 287 287 287 287 288 288 288 289 289 289
283 283 284 284 284 283 283 284 285 285 284 283 283 282 282 282 281 281 281 281 281 281 281 281 281 281 281 281 281 281 281 281 281 281 281 281 281 281 281 281 281 280 280 280 280 280 280 280 280 280 280 280 280 281 281 281 282 282 283 283 283 283 283 283 284 284 284 285 285 285 285 286 286 286 286 286 286 287 287 287 287 288 288 288 288 288
283 283 283 283 283 284 284 285 285 285 284 283 283 282 282 282 281 281 281 281 281 281 281 281 281 281 281 281 281 281 281 281 281 281 281 281 281 281 281 281 280 280 280 280 280 279 279 280 280 280 280 280 280 280 280 281 282 282 282 282 282 283 283 283 283 284 284 284 285 285 285 285 286 286 286 286 286 286 286 286 287 287 288 288 287 287
283 283 283 283 284 284 284 285 286 286 285 284 283 283 282 282 281 281 281 281 281 281 281 281 281 281 281 281 281 281 281 281 281 281 281 281 281 281 281 281 280 280 280 280 279 279 279 280 280 280 280 280 280 280 280 281 281 281 282 282 282 282 282 283 283 283 284 284 284 284 285 285 285 285 285 285 286 286 286 286 287 287 287 287 286 286
283 283 284 284 284 284 285 285 286 286 285 285 284 283 282 281 281 281 281 281 281 281 281 281 281 281 281 281 281 281 281 281 281 281 281 281 281 281 281 280 280 279 279 279 279 279 279 280 280 280 280 280 280 280 280 280 281 281 281 281 281 282 282 282 283 283 283 283 284 284 284 284 285 285 285 285 285 285 286 286 286 287 287 286 285 285
283 283 283 283 284 284 284 284 285 285 285 285 284 283 282 282 281 281 281 281 281 281 281 281 281 281 281 281 281 281 281 281 281 281 281 280 280 281 280 280 279 279 279 279 279 279 279 280 280 280 280 280 280 280 280 280 280 280 280 281 281 281 281 282 282 283 283 283 283 284 284 284 284 284 285 285 285 285 285 286 286 286 286 285 285 284
282 282 283 283 283 283 283 283 284 284 284 284 284 283 282 282 281 281 281 281 281 281 281 281 281 281 281 281 281 281 281 281 281 281 280 280 280 280 280 280 279 279 279 279 279 279 280 280 280 280 280 280 280 280 280 280 280 280 280 280 280 281 281 281 282 282 282 283 283 283 283 284 284 284 284 284 284 285 285 285 286 286 285 285 284 284
282 283 283 283 283 283 283 283 283 283 283 283 283 282 282 281 281 281 281 281 281 281 281 281 281 281 281 280 280 280 280 281 280 280 280 280 280 280 279 279 279 278 278 278 279 279 280 280 280 280 280 280 280 280 280 280 280 280 280 280 280 280 280 281 281 282 282 282 282 283 283 283 283 283 284 284 284 284 285 285 285 285 285 284 284 284
283 283 283 283 283 283 283 282 282 282 282 283 282 282 281 281 281 281 280 280 280 280 280 280 280 280 280 280 280 280 280 280 280 280 280 280 280 279 279 279 278 278 278 278 278 279 280 280 280 280 280 279 279 279 279 280 280 280 280 280 280 280 280 281 281 281 281 282 282 282 282 282 283 283 283 283 284 284 284 285 285 285 284 284 284 284
282 282 282 282 282 282 282 282 282 282 282 282 281 281 281 280 280 280 280 280 280 279 279 279 279 279 279 279 279 280 280 280 280 279 279 279 279 279 279 278 278 278 278 278 278 279 279 280 280 280 279 279 279 279 279 279 279 280 280 280 280 280 280 280 281 281 281 281 281 282 282 282 282 282 283 283 283 283 284 284 284 284 284 284 284 284
281 282 282 282 282 282 282 282 282 282 282 281 281 280 280 280 280 280 280 280 279 279 279 279 279 279 279 279 279 279 279 279 279 279 279 279 279 278 278 278 278 278 277 277 277 278 278 279 279 279 279 279 279 279 279 279 279 279 279 279 279 280 280 280 280 280 281 281 281 281 281 282 282 282 282 282 283 283 283 284 284 284 284 284 284 284
281 281 281 281 281 281 281 281 281 281 281 281 280 280 280 280 280 280 280 280 279 279 279 278 278 278 278 278 278 279 279 279 279 279 279 278 278 278 278 277 277 277 277 277 277 277 277 278 278 278 278 278 279 279 279 279 279 279 279 279 279 280 280 280 280 280 280 280 281 281 281 281 281 281 282 282 282 283 283 283 284 284 284 284 284 284
281 281 281 281 281 281 281 281 281 281 280 280 280 280 280 280 280 280 280 280 279 279 279 278 278 278 278 278 278 278 278 279 279 278 278 278 278 277 277 277 277 277 277 277 277 277 277 277 277 277 278 278 279 279 279 279 279 279 279 279 279 280 280 280 280 280 280 280 280 280 281 281 281 281 281 281 282 282 283 283 283 283 283 284 284 284
280 280 280 280 280 281 281 281 281 281 280 280 280 280 280 280 280 280 280 279 279 279 279 278 278 278 278 277 277 278 278 278 278 278 278 278 277 277 277 277 276 276 276 276 276 276 277 277 277 277 278 278 279 279 279 279 279 279 279 279 279 280 280 280 280 280 280 280 280 280 280 281 281 281 281 281 282 282 282 282 283 283 283 283 283 284
280 280 280 280 280 280 280 281 281 281 280 280 280 280 280 280 280 280 280 279 279 279 279 278 278 278 278 278 278 278 278 278 278 278 278 278 277 277 276 276 276 276 276 276 276 276 276 276 277 277 278 278 278 279 279 279 279 279 279 279 279 280 280 280 280 280 280 280 280 280 280 281 281 281 281 281 281 282 282 282 282 282 283 283 283 283
279 280 280 280 280 280 280 281 281 281 280 280 280 280 280 280 280 280 280 280 279 279 279 279 279 278 278 278 278 278 278 278 278 278 277 277 277 277 276 276 276 275 275 276 276 276 276 276 276 277 277 278 278 278 279 279 279 279 279 279 279 280 280 280 280 280 280 280 280 280 280 280 280 281 281 281 281 281 281 282 282 282 282 282 283 283
279 279 280 280 280 280 280 281 281 281 280 280 280 280 280 280 280 280 280 279 279 279 279 279 279 278 278 278 278 278 278 278 278 277 277 277 277 276 276 276 275 275 275 275 275 275 276 276 276 277 277 277 278 278 278 278 278 278 279 279 280 280 280 280 280 280 280 280 280 280 280 280 280 280 281 281 281 281 281 281 282 282 282 282 282 283
279 279 279 280 280 280 280 280 280 281 280 280 280 280 280 280 280 280 279 279 279 279 279 278 278 278 278 278 278 278 278 278 277 277 277 277 276 276 276 276 275 275 275 275 275 275 275 276 276 276 277 277 277 277 277 278 278 278 279 279 280 280 280 280 281 280 280 280 280 280 280 280 280 281 281 281 280 281 281 281 281 282 282 282 282 282
279 279 279 279 280 280 280 280 280 280 280 280 280 280 280 280 280 280 280 279 279 279 279 279 279 278 278 278 278 278 278 277 277 277 277 277 276 276 276 276 275 275 275 275 275 275 275 275 275 276 276 277 277 277 277 278 278 278 279 279 280 280 280 280 281 281 280 280 280 280 280 280 280 281 280 280 280 280 281 281 281 281 282 282 282 282
279 279 279 279 279 280 280 280 280 280 279 280 279 279 279 279 279 279 279 279 279 279 279 279 279 279 279 278 278 278 278 277 277 277 277 276 276 276 276 275 276 275 275 275 275 275 275 275 275 276 276 276 276 277 277 277 278 278 279 279 280 280 280 280 281 281 280 280 280 280 280 280 280 280 280 280 280 280 281 281 281 281 282 282 282 282
279 279 279 279 279 279 279 279 279 279 279 279 279 279 279 279 279 278 278 278 278 278 278 278 278 278 278 278 278 278 278 277 277 277 276 276 276 276 276 275 275 276 275 275 275 275 276 276 276 276 276 276 276 276 277 277 278 279 279 279 280 280 280 281 281 280 280 280 280 280 280 280 280 280 280 280 280 281 281 281 281 282 282 282 282 282
278 278 279 279 279 279 279 279 279 279 279 279 279 279 279 279 278 278 278 277 277 277 277 277 277 277 277 277 277 277 277 277 277 277 276 276 276 276 275 276 276 276 276 276 276 276 276 276 276 277 277 277 277 277 277 278 278 279 279 280 280 280 280 280 280 280 280 280 280 280 280 280 280 280 280 280 280 281 281 281 281 282 282 282 282 282
278 278 278 278 278 278 278 279 279 279 279 279 279 279 279 279 278 278 277 277 277 277 276 276 276 276 276 277 277 277 277 277 277 276 276 276 276 276 276 276 276 276 276 276 276 276 276 277 277 278 278 278 277 277 277 278 279 279 279 280 280 280 280 280 280 280 280 280 280 280 280 280 280 280 280 280 281 281 281 281 281 282 282 282 282 282
278 278 278 278 278 278 278 278 278 278 278 279 279 279 279 278 278 278 277 277 277 276 276 276 276 276 276 276 277 277 277 277 277 276 276 276 276 275 275 276 276 276 277 276 276 276 276 277 277 278 279 278 278 278 278 279 279 279 280 280 280 280 280 280 280 280 280 280 280 280 280 280 280 280 280 280 281 281 281 281 282 282 282 282 282 282
277 278 278 278 278 278 278 278 278 278 278 278 279 279 279 278 278 278 277 276 276 276 276 276 275 275 275 276 276 276 276 276 276 276 276 276 276 275 275 276 276 277 277 277 277 277 277 277 278 278 278 279 279 279 279 279 279 279 279 280 280 280 280 280 280 280 280 280 280 280 280 280 280 280 280 281 281 281 281 281 282 282 282 282 282 282
277 277 278 278 278 278 278 278 278 278 278 278 278 278 278 278 278 277 277 276 276 276 275 275 275 275 275 275 276 276 276 275 275 275 275 275 275 275 275 275 276 277 277 278 278 278 279 279 279 279 279 279 279 279 280 280 280 279 279 279 279 280 280 280 280 280 280 280 280 280 280 280 280 280 280 281 281 281 281 281 281 282 282 282 282 282
277 277 278 278 277 277 278 278 278 278 278 278 278 278 278 278 278 277 276 276 275 275 275 275 274 274 275 275 275 275 275 275 275 275 275 275 275 275 275 275 275 276 277 278 278 279 279 280 280 280 280 280 280 280 280 280 280 279 279 279 279 280 280 280 280 280 280 280 279 279 280 280 280 280 280 281 281 281 281 281 281 282 282 282 282 282
277 277 278 277 277 277 277 278 278 278 278 278 278 278 278 278 277 277 276 276 275 275 275 274 274 274 275 275 275 275 275 275 275 275 275 275 275 275 275 275 275 275 276 277 278 278 279 280 280 281 281 281 280 280 280 280 280 279 279 279 279 280 280 280 279 279 279 279 279 279 280 280 280 280 281 281 281 281 281 281 281 281 282 282 282 282
277 277 277 277 277 277 277 278 278 278 278 278 278 278 278 278 277 276 276 275 275 275 274 274 274 274 275 275 275 275 274 274 274 274 274 275 275 275 275 275 275 275 276 276 277 277 278 279 280 280 281 281 281 280 280 280 279 279 279 279 279 279 279 279 279 279 279 279 279 280 280 280 280 280 280 281 281 281 281 281 281 281 281 281 282 282
277 277 277 277 277 277 277 278 278 278 278 278 278 278 278 277 277 276 275 275 275 274 274 274 274 274 275 275 275 274 274 274 274 274 274 274 275 275 275 275 275 275 275 276 276 277 277 278 278 279 280 280 280 280 280 279 279 279 279 279 279 279 279 279 279 279 279 279 279 279 280 280 280 280 280 280 280 281 281 281 281 281 281 281 281 282
Wind_Speed
12 13 14 16 16 16 15 16 17 18 19 19 19 20 21 21 20 20 19 19 19 19 19 19 18 18 18 18 18 18 19 19 19 20 20 20 20 21 21 21 22 23 24 24 25 25 25 25 24 24 23 23 22 22 22 23 23 23 24 24 24 25 25 25 26 26 26 26 27 27 27 27 27 26 26 26 25 25 25 25 24 24 23 23 22 21
13 14 15 16 16 15 15 16 17 18 19 19 20 20 21 21 21 20 20 19 19 19 19 19 19 18 18 19 20 21 21 20 20 20 20 20 20 21 21 22 22 23 24 24 25 25 24 24 23 23 22 22 22 22 22 23 24 24 24 24 25 25 25 25 25 25 25 25 25 25 25 25 25 25 24 24 24 23 23 23 22 22 22 22 21 21
14 15 16 16 16 15 15 16 17 17 18 19 20 20 21 21 21 21 20 20 20 20 20 20 20 20 20 22 23 23 22 21 21 20 20 20 20 21 21 22 23 24 24 24 24 24 23 22 22 22 21 22 22 22 23 23 24 24 24 24 24 24 24 24 24 24 24 24 24 24 24 24 24 23 23 23 22 23 23 22 22 23 23 24 24 23
14 15 16 16 15 13 14 15 16 17 17 19 20 20 20 20 20 20 21 21 22 22 21 21 21 22 23 24 25 25 23 21 21 20 20 20 20 21 22 23 24 24 24 24 23 22 22 21 21 21 22 22 22 23 23 23 24 24 24 24 24 23 23 23 23 23 23 24 24 24 24 24 24 23 23 23 23 23 23 24 24 25 25 26 26 27
14 14 16 16 14 12 13 14 15 16 18 19 20 20 20 20 20 21 22 22 23 22 22 21 22 23 24 25 26 24 22 22 21 21 20 21 21 22 23 24 24 24 23 22 22 21 21 21 21 21 22 22 23 23 23 23 23 23 23 23 23 23 23 23 23 23 23 23 23 23 23 24 24 24 23 23 23 24 24 25 25 26 26 27 27 27
13 14 16 14 12 11 12 13 14 16 17 18 19 19 19 19 20 22 22 23 22 21 21 21 22 24 25 26 25 24 23 22 22 22 22 22 23 24 25 25 24 23 21 20 20 20 20 20 21 22 22 22 23 23 23 23 23 23 22 22 22 22 22 22 22 22 23 23 23 23 23 23 24 24 24 24 24 24 24 25 25 26 26 26 27 27
13 14 15 13 11 10 11 11 13 15 17 18 18 18 17 18 19 21 22 22 21 20 20 20 21 23 25 25 24 23 23 23 23 23 24 24 25 26 25 24 22 20 19 19 19 19 20 21 21 22 22 22 22 23 23 22 22 22 22 21 21 21 22 22 22 22 22 23 23 23 23 23 24 24 24 24 24 25 25 25 25 26 26 26 26 27
13 13 14 13 11 10 10 10 12 14 16 18 18 18 17 17 17 18 19 20 20 20 20 21 21 22 24 24 24 23 23 23 24 24 25 26 26 25 24 22 20 18 18 18 19 20 21 21 22 22 22 22 22 22 22 22 21 21 21 21 21 21 22 22 22 22 22 22 23 23 23 23 24 24 24 24 25 25 25 25 25 26 26 26 26 26
12 13 12 11 11 11 11 10 11 13 15 16 18 18 18 18 17 16 16 17 18 19 20 21 22 23 23 22 22 23 23 23 24 25 25 26 25 24 21 19 18 17 17 18 19 20 21 22 22 22 22 22 21 21 21 21 21 21 21 21 21 21 21 22 22 22 22 22 23 23 23 23 24 24 24 24 25 25 25 25 25 25 25 25 25 26
12 12 12 11 11 11 11 12 13 14 14 15 15 15 16 18 18 18 17 17 17 18 19 20 22 23 23 22 22 22 23 24 24 24 24 24 23 22 20 19 18 19 19 19 20 21 22 22 22 22 21 21 21 21 21 20 20 21 21 21 21 21 21 21 22 22 22 22 23 23 23 23 23 24 24 24 24 24 24 24 24 24 24 25 25 25
11 12 12 11 11 11 11 12 13 14 14 14 13 13 13 15 18 19 19 19 19 19 18 18 20 21 22 22 22 22 23 24 24 24 24 24 23 22 20 20 20 21 21 21 22 22 22 22 21 21 21 21 21 20 20 20 20 21 21 21 21 21 21 21 21 22 22 22 22 22 23 23 23 23 23 23 24 24 24 24 24 24 24 24 24 24
11 11 11 11 11 11 11 11 12 12 13 14 13 13 13 15 17 17 17 18 19 19 19 18 19 20 20 20 21 21 23 24 25 26 26 26 25 23 22 23 23 23 24 24 25 25 23 21 21 21 22 21 21 20 20 20 20 21 21 21 21 21 21 21 21 21 22 22 22 22 22 22 23 23 23 23 23 23 23 23 24 24 24 24 24 24
10 10 11 11 10 10 10 11 12 12 13 13 13 14 14 16 17 17 16 17 18 18 19 19 19 19 19 17 17 19 22 24 25 26 27 28 27 25 24 24 24 25 25 26 27 26 24 22 22 22 23 23 21 20 20 20 21 21 21 21 21 21 21 21 21 22 22 22 22 22 22 22 22 22 22 23 23 23 23 24 24 24 24 24 24 25
9 10 10 10 9 9 10 11 11 11 12 13 13 13 14 16 17 18 17 17 17 17 17 18 19 19 18 15 15 18 21 24 26 27 28 28 26 24 23 24 24 25 26 26 26 25 24 23 24 26 26 24 23 21 20 20 21 21 21 21 21 21 22 22 22 22 22 23 23 23 23 23 23 23 23 23 23 23 24 24 24 24 24 24 24 25
8 9 8 8 8 9 10 10 11 11 11 12 13 14 15 16 17 17 17 17 17 17 17 17 17 17 16 15 16 18 21 24 25 26 27 27 25 23 22 23 25 25 25 25 24 24 24 25 26 27 27 25 23 21 21 21 21 21 21 21 22 22 22 22 22 23 23 23 23 23 23 23 23 23 23 23 23 24 24 24 24 24 24 24 24 24
7 7 7 7 8 8 9 10 10 10 11 11 13 14 16 16 17 17 16 16 16 16 15 15 15 14 15 15 17 19 21 24 25 25 25 25 24 23 22 23 24 25 24 24 24 24 25 26 27 27 26 24 22 20 20 20 21 21 21 22 22 22 22 23 23 23 23 23 23 23 23 23 23 23 23 23 24 24 24 24 24 24 24 24 24 24
6 6 6 7 8 9 10 10 10 10 10 10 11 12 14 15 16 16 15 15 14 13 12 12 10 10 11 15 18 20 22 24 25 25 24 22 22 22 22 23 24 24 24 24 24 24 25 26 27 27 26 23 21 20 20 20 21 21 21 22 22 22 22 23 23 23 23 23 23 23 23 23 23 23 23 23 24 24 24 24 24 24 24 24 24 25
6 6 7 7 8 9 10 11 11 11 11 10 10 11 13 14 15 16 14 13 12 11 10 10 9 8 8 12 16 20 21 23 24 23 21 21 21 22 23 24 24 23 23 23 24 24 25 27 28 27 24 21 20 20 20 20 21 21 21 22 22 22 23 23 23 23 23 23 23 23 23 23 23 23 23 23 24 24 24 24 24 24 25 25 25 25
6 7 7 7 8 9 10 11 11 12 11 10 10 11 13 14 15 15 13 12 11 11 10 9 9 10 11 13 17 21 21 22 23 22 20 20 21 23 24 24 24 23 23 23 24 25 26 27 28 26 23 21 20 20 20 21 21 21 22 22 22 23 23 23 23 23 23 23 23 23 23 23 23 23 23 23 24 24 24 24 25 25 25 25 25 25
6 7 8 8 9 9 10 11 12 11 10 9 10 11 12 14 15 14 13 12 11 11 11 11 11 12 14 17 19 20 20 21 21 20 19 20 21 22 23 24 24 24 23 23 24 25 27 28 28 26 23 21 19 20 20 21 21 22 22 22 23 23 23 23 23 23 23 23 23 23 23 23 23 23 23 24 24 24 24 24 25 25 25 25 25 24
7 8 8 9 10 10 10 12 12 10 8 9 11 12 11 12 13 12 12 12 13 13 13 13 14 15 16 18 19 19 19 19 19 19 18 19 20 22 23 23 23 23 22 23 24 26 28 28 27 25 22 20 19 20 21 21 22 22 22 22 23 23 23 23 23 22 22 22 23 23 23 23 23 23 23 24 24 24 25 25 25 25 25 25 25 24
7 8 8 8 9 10 10 12 11 8 5 10 13 12 12 12 11 11 11 12 13 14 14 15 15 16 16 16 17 17 17 17 17 17 17 18 20 22 23 22 22 21 21 23 25 27 29 28 26 24 21 19 19 20 21 22 22 22 23 23 23 23 23 23 23 22 22 22 23 23 23 23 23 23 23 24 24 25 25 24 25 25 25 25 24 23
7 7 8 8 9 9 9 11 10 6 4 11 15 15 14 12 11 10 10 12 13 14 15 16 16 16 15 15 15 16 16 16 17 18 17 15 18 21 23 22 21 21 21 23 25 28 29 27 25 23 21 20 20 21 22 22 22 23 23 23 23 23 23 23 23 22 23 23 23 23 23 23 23 23 24 24 24 24 24 24 25 25 25 25 24 23
7 7 7 8 8 8 9 10 9 6 5 11 15 16 15 13 11 9 10 11 13 15 15 16 17 16 15 15 16 16 17 16 17 17 17 16 18 20 21 21 21 21 22 23 25 27 27 26 24 22 20 20 21 22 23 23 22 23 23 23 23 23 23 23 22 22 23 23 23 23 23 23 23 23 24 24 24 24 24 24 24 25 25 24 23 22
7 7 7 7 8 8 8 9 9 8 8 12 14 15 15 14 12 10 11 13 15 16 17 17 17 16 16 16 16 17 18 17 16 17 17 17 18 19 20 20 21 21 23 24 25 26 26 25 23 21 19 20 22 24 24 23 23 23 23 23 23 23 23 23 23 23 23 23 23 23 23 23 23 23 24 24 24 24 24 24 24 25 25 24 22 21
7 7 7 7 7 7 7 9 10 10 10 12 13 14 15 15 14 13 13 15 16 17 17 17 16 16 17 17 18 18 19 17 17 18 19 17 17 18 19 20 21 21 23 24 24 24 24 23 21 20 19 21 24 25 25 23 23 23 23 23 23 23 23 23 23 23 23 23 23 23 23 23 23 23 24 24 24 24 24 24 24 25 24 23 22 21
6 7 7 7 7 7 7 8 9 10 10 11 11 13 15 16 16 15 16 16 17 17 16 14 14 14 16 17 17 18 19 17 17 20 21 19 16 16 18 20 21 22 23 24 23 22 21 20 19 18 19 22 25 26 25 24 24 24 24 24 24 23 23 23 23 23 24 23 23 23 23 23 23 23 23 24 24 24 24 24 24 24 24 22 22 21
5 6 7 7 7 7 7 8 9 10 11 11 12 13 15 17 16 15 15 16 17 16 14 13 12 12 13 14 16 18 17 15 17 21 22 18 15 15 18 20 21 22 22 23 23 22 19 17 16 17 19 22 25 27 26 25 25 25 25 25 24 24 23 23 23 24 24 24 23 23 23 23 23 23 23 23 23 23 23 24 24 24 23 22 22 21
7 7 8 9 9 8 8 8 9 10 12 12 12 13 15 16 15 14 15 16 16 15 13 13 13 12 13 15 17 17 15 14 18 21 22 18 15 15 18 19 20 21 22 23 23 21 18 15 14 15 19 23 25 26 26 26 26 27 27 26 26 25 24 24 24 24 24 23 23 23 23 23 23 23 23 23 23 23 23 24 24 24 23 23 22 21
8 8 8 9 9 9 9 9 9 10 11 12 13 15 16 17 16 15 16 16 15 13 13 13 13 14 14 15 14 13 11 15 19 22 21 17 15 16 18 19 19 19 19 19 17 15 15 16 16 16 19 23 25 25 26 26 27 28 29 29 27 26 25 24 25 25 24 23 23 23 23 23 23 23 23 23 23 23 23 24 24 24 24 23 22 21
8 8 8 9 9 9 10 10 10 10 11 13 15 17 17 17 17 16 16 16 15 13 12 12 12 13 13 12 8 6 7 15 20 22 21 17 15 16 18 18 18 18 17 15 10 7 10 14 18 20 22 24 24 25 25 25 25 27 29 29 28 27 26 25 25 25 25 24 23 22 22 23 23 23 23 23 23 23 23 24 24 24 24 23 23 22
9 8 9 9 10 10 11 11 11 12 13 16 18 19 19 18 17 17 16 16 16 15 13 12 12 11 11 9 7 6 9 16 20 21 20 17 15 16 17 17 17 17 15 13 10 7 6 9 16 23 25 24 24 24 24 23 24 26 28 28 28 27 27 26 26 26 25 24 23 23 22 22 23 23 23 23 23 23 23 24 24 23 23 23 23 22
11 10 10 10 11 12 12 13 14 15 16 19 20 21 21 20 18 17 17 16 16 15 15 14 12 11 11 10 10 10 13 17 19 20 19 18 16 16 17 17 17 17 15 13 11 10 9 11 17 22 24 24 23 22 23 23 24 25 27 27 27 27 27 27 27 26 25 25 24 23 23 23 23 23 23 23 23 23 24 24 23 23 23 23 23 23
13 12 12 12 13 14 15 15 16 17 19 20 21 22 22 21 20 19 18 18 17 16 15 14 14 13 12 11 11 13 15 18 19 19 19 19 17 16 17 17 16 16 16 14 13 13 13 15 17 19 20 22 22 21 21 22 23 25 26 26 26 27 27 27 27 26 25 24 24 24 24 24 24 23 23 23 23 23 24 24 23 22 22 22 22 23
15 14 14 14 14 15 15 16 17 18 19 21 22 23 23 23 22 22 21 20 20 18 17 15 14 13 13 12 12 14 17 19 19 18 18 19 18 18 17 15 15 15 15 14 14 13 13 15 16 17 18 20 21 21 20 21 23 25 26 26 25 25 26 26 27 26 25 24 23 23 24 25 24 24 23 23 23 24 24 23 23 22 21 21 21 22
15 16 16 15 15 14 14 15 16 17 18 20 22 23 24 24 24 24 23 23 23 22 20 17 14 12 11 12 13 15 17 18 17 17 17 18 18 18 16 15 14 14 14 14 14 13 13 14 16 16 16 16 17 19 21 23 24 25 25 25 25 25 25 25 25 25 24 23 22 22 23 24 24 24 24 24 24 24 24 24 23 23 22 21 21 20
15 15 16 16 15 14 13 14 14 15 16 19 22 24 25 25 26 26 26 25 25 25 24 22 18 14 11 10 11 12 14 15 16 16 16 17 17 17 16 15 15 14 14 13 13 14 14 14 15 16 15 14 14 16 20 24 26 26 26 26 25 25 25 24 24 23 22 21 21 21 22 23 23 23 24 25 26 26 26 26 25 25 24 23 22 21
13 14 14 15 15 14 14 14 14 14 15 17 21 23 25 26 27 28 28 27 26 26 26 25 22 18 14 12 11 11 13 14 15 15 16 16 17 17 17 16 16 15 14 14 13 14 13 13 12 12 13 14 15 17 19 21 24 25 26 26 25 24 24 24 23 22 21 21 21 22 22 22 23 23 24 25 26 27 28 28 28 27 26 25 24 23
12 13 13 13 14 14 14 13 13 13 13 16 19 23 25 27 28 28 28 28 28 27 27 26 24 21 18 15 14 14 14 14 15 15 16 17 17 17 18 18 18 17 16 15 14 14 13 12 11 11 12 14 16 18 19 20 22 24 25 26 25 24 24 24 23 22 22 22 22 23 23 23 23 23 23 23 24 25 26 27 28 28 27 27 25 24
12 12 12 12 12 12 12 12 11 11 12 15 18 22 26 28 29 29 29 28 28 28 28 27 26 24 20 18 16 16 15 15 16 16 17 17 18 18 18 18 19 18 17 16 15 14 14 13 13 14 14 14 16 18 19 20 21 22 23 23 23 23 25 24 24 23 23 22 22 23 24 24 24 23 23 23 23 24 25 26 27 27 27 26 25 24
11 12 12 12 12 11 11 10 10 11 12 14 18 22 26 29 31 32 31 30 30 29 29 29 28 26 24 20 18 17 16 16 16 16 17 18 19 19 19 19 19 19 18 17 16 16 15 15 15 15 16 16 17 18 19 20 21 21 20 19 21 23 24 24 23 23 23 23 23 23 23 24 24 24 24 24 24 24 24 25 26 26 26 24 24 23
11 11 12 12 12 12 11 10 10 12 13 15 17 21 24 28 31 32 32 32 32 31 30 30 29 28 26 23 21 19 18 17 17 17 18 18 19 19 19 19 19 19 18 18 17 17 17 16 16 16 17 18 18 18 19 21 21 20 18 19 21 23 24 23 23 24 24 23 23 23 23 24 25 25 26 25 25 25 25 25 25 24 24 24 24 24
11 11 12 12 12 12 12 12 13 14 14 15 16 19 22 26 29 31 31 30 30 29 29 29 28 26 24 23 22 21 19 18 17 17 18 19 19 20 20 19 19 18 18 18 18 19 19 18 17 18 18 18 18 18 19 20 21 20 19 19 20 20 19 22 24 25 24 24 24 24 24 25 26 26 27 26 26 25 25 25 25 24 24 25 25 25
11 11 11 11 12 12 13 15 16 16 15 14 16 18 21 24 27 29 30 30 29 29 28 27 26 24 23 22 23 22 21 20 18 18 18 19 20 20 20 20 19 18 18 18 19 19 20 20 19 18 18 17 17 18 18 19 20 20 19 19 19 18 18 20 23 25 25 25 25 25 26 26 27 28 28 26 26 25 25 25 26 26 26 26 25 25
11 11 12 12 13 14 15 16 17 17 16 14 15 18 20 24 27 29 29 30 29 28 26 26 24 22 21 21 23 23 23 22 21 20 20 20 20 21 21 21 21 20 18 18 18 18 19 20 20 19 18 17 17 17 18 18 18 19 20 20 19 19 20 21 22 22 23 24 25 26 27 28 28 27 27 26 25 25 25 25 26 26 27 26 25 25
12 12 13 14 14 14 15 16 17 16 15 15 15 17 20 23 27 29 29 29 28 27 25 25 22 20 18 20 22 23 23 23 23 23 23 23 23 23 22 22 22 21 20 18 17 16 16 17 18 18 18 18 17 17 16 16 17 18 19 20 21 21 21 21 21 21 22 23 24 26 28 29 28 26 25 25 25 26 26 25 25 25 26 25 25 25
13 13 13 14 14 14 15 16 16 16 16 16 16 17 19 23 26 29 30 30 28 26 25 24 22 20 18 19 20 20 21 22 23 23 24 24 24 24 24 23 23 22 21 19 17 16 15 14 13 14 15 16 16 16 16 16 17 18 19 20 21 21 21 21 21 22 23 23 24 27 29 29 27 25 24 25 25 25 24 24 24 24 24 24 24 24
13 13 14 14 14 14 15 16 16 16 16 16 16 17 18 22 25 28 29 29 27 25 23 23 22 20 19 19 19 19 18 19 20 21 22 24 24 24 25 25 25 24 23 21 19 17 15 13 10 9 10 12 12 14 16 18 19 20 20 20 20 20 21 22 22 23 24 24 25 27 28 27 25 24 24 24 24 23 23 24 24 24 23 23 23 24
14 14 14 14 14 14 15 16 16 16 16 17 17 17 18 22 26 28 28 28 26 24 22 22 21 19 18 18 19 19 18 18 18 19 20 22 23 24 25 26 26 26 25 23 22 20 18 16 12 8 7 9 10 13 17 19 21 21 20 19 19 19 21 22 23 24 24 25 26 27 27 26 24 24 23 22 22 23 24 24 24 23 22 23 24 25
14 14 14 14 14 14 15 15 15 16 16 16 16 17 19 23 27 29 29 28 26 24 22 21 20 18 17 18 18 19 18 18 18 19 20 21 22 23 24 25 26 26 26 25 24 23 22 20 17 13 9 8 9 11 16 20 22 22 21 19 18 19 21 22 24 24 25 25 26 27 27 26 24 22 21 20 21 22 23 23 23 22 23 24 25 27
14 14 14 14 14 14 14 15 15 15 16 16 16 17 19 23 27 30 30 29 27 25 23 21 19 17 16 16 17 18 17 17 18 18 19 20 21 22 22 23 24 24 23 22 22 22 20 18 16 15 14 11 9 11 15 19 21 22 20 20 20 20 21 23 24 25 26 26 26 26 25 24 22 21 20 20 20 21 22 23 23 24 24 25 27 28
Wind_Direction
355 353 352 353 354 356 0 2 2 2 4 6 6 5 2 359 357 355 354 354 354 353 352 351 349 347 345 343 341 340 340 339 337 334 333 332 331 331 331 331 331 331 331 331 330 330 330 330 329 329 329 330 331 332 333 334 334 334 332 331 329 327 325 324 322 321 319 318 317 316 315 315 315 315 316 318 318 318 318 318 319 319 319 318 318 319
352 352 352 354 355 355 356 0 3 2 2 2 2 1 359 357 355 354 353 353 353 353 351 350 348 346 344 342 340 340 340 339 338 336 334 333 333 333 333 333 333 332 332 332 331 331 331 331 331 332 333 335 335 335 334 333 331 330 328 327 326 325 324 323 322 321 320 319 319 318 318 318 318 318 319 320 320 319 319 319 318 318 317 317 318 320
350 351 352 355 355 354 352 356 0 2 360 358 357 356 355 354 354 353 353 352 351 351 350 348 346 344 342 340 340 340 341 340 338 336 335 335 335 335 334 334 334 334 333 333 333 332 333 333 334 335 337 337 335 334 332 331 330 328 327 327 326 325 324 323 322 322 321 321 321 321 321 321 321 321 321 322 322 322 320 320 319 318 317 317 318 318
351 351 351 354 354 353 351 354 357 357 356 354 353 353 353 353 352 351 350 349 348 348 348 346 343 341 340 340 341 342 342 340 339 338 337 337 337 336 336 335 335 334 334 334 334 335 335 336 337 338 337 336 334 333 332 331 330 329 329 328 327 326 325 324 323 323 322 322 323 323 323 323 324 324 324 324 324 323 322 321 320 319 318 318 318 319
355 353 352 353 351 349 349 353 354 353 351 351 351 351 351 350 349 347 347 346 347 348 347 345 342 340 339 341 342 343 341 339 337 336 337 337 337 336 335 334 334 334 334 335 336 337 338 339 338 337 336 335 334 333 332 332 331 330 329 328 327 326 325 324 324 324 324 324 324 324 324 325 325 326 327 327 326 325 323 322 321 319 319 318 318 318
358 355 354 353 350 347 347 351 352 351 349 349 349 350 349 347 346 345 345 346 348 348 348 345 341 339 340 342 343 342 340 336 334 332 333 334 334 334 333 333 334 335 336 337 339 339 340 339 338 336 335 334 334 333 333 333 332 331 330 329 328 327 327 326 326 325 325 325 325 325 325 325 326 326 326 326 324 323 322 321 320 319 318 317 317 316
358 355 354 353 350 348 347 348 349 350 349 348 348 348 348 347 345 344 345 346 348 348 347 343 340 340 341 343 343 341 338 335 332 330 329 331 332 332 333 334 336 338 339 340 341 341 340 339 337 336 335 335 334 334 334 333 333 332 332 331 330 330 329 328 328 328 327 326 326 326 326 326 325 325 324 323 322 322 321 320 319 319 318 317 317 316
357 355 355 354 351 347 346 346 348 348 348 348 347 347 346 346 346 346 345 346 347 347 345 342 340 340 343 344 343 340 336 334 332 331 330 332 333 335 336 338 340 342 342 342 341 341 340 339 338 337 336 335 335 335 335 335 335 335 334 334 333 332 331 331 330 329 328 327 327 327 326 325 324 323 323 322 321 321 320 320 319 319 318 318 317 317
0 357 355 354 351 347 344 344 345 347 347 347 348 347 345 346 346 347 347 347 347 346 343 341 339 339 342 343 342 338 334 332 332 332 333 336 339 342 344 345 346 345 343 341 340 339 339 339 338 338 337 337 337 336 336 337 337 336 336 335 335 334 333 332 331 330 329 328 328 327 326 325 324 324 323 322 322 321 320 320 319 319 318 318 317 316
360 358 354 351 350 349 346 343 342 344 347 348 349 349 349 348 348 347 346 345 345 344 343 340 338 337 339 341 340 336 332 330 330 333 337 342 346 350 351 351 350 347 343 340 339 338 339 339 339 340 339 339 339 338 338 338 337 337 337 337 336 335 334 333 332 331 330 329 329 327 326 325 325 324 323 323 322 322 321 320 320 319 318 317 317 316
358 355 352 349 348 348 348 343 341 342 346 348 351 355 357 357 353 349 344 341 340 341 342 340 337 335 336 338 338 336 332 331 332 336 341 348 353 355 354 353 351 347 343 339 338 338 339 340 340 341 341 341 340 339 339 338 337 337 337 337 336 335 334 333 333 332 331 330 329 328 327 327 325 325 324 324 323 322 321 321 320 319 318 318 317 316
357 352 350 348 347 348 347 345 344 346 350 353 355 357 0 0 356 350 343 338 337 338 338 336 335 334 335 337 338 337 335 336 338 340 344 350 355 356 354 352 349 346 342 339 339 340 341 341 341 342 342 342 341 340 339 338 337 336 337 336 336 335 334 334 333 332 331 330 329 328 328 327 326 326 325 324 324 323 322 321 320 319 319 318 317 316
355 351 349 351 352 351 349 347 348 353 358 0 0 358 354 352 350 347 341 336 335 335 335 334 332 332 335 338 340 340 341 341 341 342 343 347 352 354 352 348 344 342 340 338 339 341 343 343 343 344 345 345 345 342 340 337 336 335 336 336 336 336 335 334 333 332 331 330 330 329 328 328 327 327 326 325 324 323 323 322 321 320 320 319 318 317
354 353 354 355 356 355 353 352 353 357 1 2 360 355 349 346 344 343 340 337 335 335 334 333 331 332 337 341 344 346 347 345 343 342 341 344 348 351 348 343 340 339 338 338 339 341 345 345 345 347 348 349 348 345 340 337 336 335 335 336 336 335 335 334 333 332 332 331 330 330 329 329 328 327 327 326 325 324 324 323 322 322 321 321 319 318
356 356 357 356 355 355 355 353 355 358 0 358 355 350 346 345 345 344 342 339 337 337 336 335 333 334 339 343 350 353 351 347 343 340 338 340 345 348 346 341 338 338 338 338 339 342 346 346 346 346 348 348 346 343 338 336 336 336 336 336 336 335 335 334 333 333 332 331 331 330 330 329 329 328 328 327 326 326 325 324 324 323 322 321 320 319
2 2 357 353 354 355 355 353 353 355 356 354 351 349 347 347 347 347 346 342 340 340 341 340 339 338 338 347 356 358 353 347 342 337 334 335 340 345 344 340 338 337 337 337 339 342 346 347 347 346 346 345 342 339 337 336 336 336 336 336 336 335 335 334 333 332 332 331 330 330 330 330 330 329 329 328 328 327 327 326 325 324 323 322 321 320
9 5 359 355 355 355 353 351 350 351 353 351 350 351 352 352 350 350 350 347 345 345 345 344 342 337 333 337 348 355 354 346 339 336 333 331 335 340 341 340 338 337 336 337 340 343 345 345 345 345 344 342 340 338 338 338 337 337 337 336 336 335 334 334 333 332 332 331 331 330 331 331 330 330 330 329 329 328 328 327 326 325 324 323 323 322
14 8 3 0 358 355 351 348 347 348 350 350 352 355 0 358 355 354 354 353 351 348 345 342 338 332 327 325 334 345 352 344 338 334 332 331 333 337 340 341 339 337 335 337 340 343 343 342 343 343 342 340 339 339 339 338 338 338 337 336 336 335 335 334 333 333 332 332 331 331 332 331 331 331 331 330 330 329 329 328 327 327 326 325 324 323
18 12 9 4 0 356 353 349 347 347 348 351 356 2 3 1 359 357 357 355 352 347 341 335 329 323 319 312 325 339 349 344 339 335 332 331 332 336 340 341 340 337 336 337 339 341 340 340 342 344 344 341 339 339 339 339 338 338 337 337 336 336 335 335 334 334 333 333 332 332 332 332 332 332 331 331 331 330 330 329 329 328 328 327 326 324
24 19 13 7 2 359 355 351 348 345 346 357 9 13 10 5 1 358 355 352 348 343 338 331 324 318 315 315 324 337 347 345 341 337 334 331 331 335 340 341 340 337 335 336 338 339 338 339 342 345 347 345 341 340 339 339 339 339 338 338 337 337 336 336 335 334 334 334 334 333 334 334 333 333 332 332 332 332 331 331 330 330 329 328 327 327
28 21 16 10 6 1 354 351 346 341 344 12 23 22 14 9 5 359 352 347 344 340 336 329 322 318 318 318 324 335 345 345 342 338 335 332 332 336 340 341 340 337 334 334 336 336 337 338 342 345 347 343 340 340 339 339 340 339 339 338 338 338 337 336 336 336 335 335 335 335 335 334 334 334 334 334 334 333 333 333 332 331 331 330 330 331
28 20 15 11 8 2 354 351 343 334 347 25 29 24 16 11 6 358 350 345 341 336 331 324 321 322 323 321 327 337 346 346 344 341 336 333 333 335 338 340 339 336 334 333 334 335 336 338 341 345 345 342 340 340 340 340 340 340 340 339 339 338 338 338 337 337 337 337 336 336 336 336 335 336 335 335 335 335 335 334 334 333 333 333 334 336
27 19 14 11 7 1 355 350 340 331 10 31 29 21 13 8 3 356 350 345 339 334 328 325 328 331 333 332 336 343 348 349 349 346 341 335 331 332 336 339 339 336 333 331 331 332 334 336 340 343 344 342 341 341 341 341 341 340 340 340 340 340 339 339 339 339 339 338 338 337 337 337 337 337 337 337 337 336 336 336 335 335 335 337 338 337
25 18 13 10 5 0 356 351 347 353 33 32 23 14 7 5 3 358 351 348 344 339 335 335 338 340 341 342 343 346 350 351 351 350 347 338 331 331 334 337 337 335 331 329 330 330 331 333 337 341 342 341 340 342 344 343 342 341 341 341 341 341 341 341 340 340 340 340 339 339 339 339 339 338 338 338 338 338 337 337 336 336 337 339 339 337
25 20 16 13 9 6 5 4 8 19 34 27 17 7 3 6 7 4 358 355 353 349 346 345 345 345 344 344 343 345 349 350 352 353 350 340 331 330 333 337 337 334 330 329 329 330 329 329 333 338 339 338 339 342 345 344 343 342 342 342 342 342 342 342 341 342 341 341 340 340 340 340 340 340 339 339 339 339 339 338 338 338 339 341 339 337
27 25 24 21 19 20 22 23 25 28 28 21 12 5 3 6 8 8 6 2 358 355 352 350 347 344 343 343 343 343 345 348 352 354 353 343 332 330 332 337 337 333 329 328 329 328 327 326 329 334 337 336 339 343 346 346 344 343 344 344 344 344 344 343 342 342 342 342 341 341 341 341 341 341 341 341 341 341 340 340 340 340 341 341 340 340
41 40 39 36 37 40 42 37 32 28 25 20 14 9 6 9 11 10 7 2 359 356 354 350 344 341 341 342 340 338 340 346 352 354 351 345 335 329 332 336 337 334 330 328 327 327 325 323 326 331 334 335 339 343 346 347 346 345 346 346 347 347 346 344 343 342 342 342 342 342 342 342 342 342 342 342 342 342 342 341 341 341 342 342 341 341
69 69 66 63 62 63 61 52 41 32 27 24 20 15 13 14 15 10 2 358 356 355 352 347 342 338 337 335 333 332 337 348 353 352 349 345 337 331 332 335 337 336 333 329 327 326 325 325 327 331 333 335 338 341 345 347 347 348 347 347 348 349 348 346 344 343 342 342 342 342 342 343 343 343 343 343 343 343 343 343 342 343 343 343 342 341
91 91 88 81 75 70 66 60 53 43 35 29 24 21 19 19 17 10 1 358 357 354 349 344 341 337 332 329 329 331 339 351 352 350 349 346 338 333 333 336 338 339 337 333 331 330 329 329 331 332 333 335 337 340 343 346 347 348 347 348 349 350 349 347 345 344 344 344 343 343 343 343 344 344 344 344 344 344 344 344 344 344 344 344 342 340
94 94 89 82 74 68 62 58 55 50 43 35 30 26 24 21 18 13 7 4 0 354 346 341 338 335 333 332 333 335 342 347 348 348 349 347 339 333 334 336 338 340 341 339 336 333 330 329 330 332 333 334 336 338 341 344 346 346 346 347 349 350 350 348 347 346 346 345 344 343 342 343 343 344 344 344 344 344 344 345 345 345 344 343 342 340
83 85 80 74 68 62 56 52 49 48 44 37 31 27 24 22 19 16 12 9 5 357 347 340 337 335 336 337 337 334 332 336 341 346 348 346 337 331 333 333 334 337 341 342 340 331 325 325 326 328 330 332 333 335 339 342 343 344 345 346 347 348 348 347 346 346 346 345 344 343 342 342 342 343 343 343 344 344 344 345 346 346 345 343 341 338
70 73 72 68 63 58 51 47 45 43 40 34 29 25 24 22 20 18 15 12 8 2 354 344 338 335 334 332 324 310 314 326 336 343 346 343 335 329 331 331 331 332 335 336 330 317 311 315 318 321 325 327 329 332 336 339 341 343 344 344 345 346 348 348 347 346 345 344 343 342 342 343 343 343 342 343 343 344 344 345 346 346 345 342 340 337
63 66 68 68 65 58 50 45 42 39 36 31 27 24 24 24 23 21 18 16 12 7 359 351 342 334 329 323 315 310 313 323 334 342 343 341 335 331 330 330 329 329 330 330 323 311 300 302 309 315 319 322 324 328 332 337 340 342 343 343 343 345 347 348 347 345 344 342 341 341 342 343 343 343 342 343 343 343 343 344 345 345 344 342 339 337
59 61 63 64 61 56 49 43 38 35 31 28 25 23 23 24 23 22 20 19 16 13 7 359 349 339 329 322 316 312 315 327 338 344 341 340 337 332 330 330 331 330 330 328 325 318 309 306 309 313 316 319 321 325 330 334 338 340 342 342 342 342 344 346 345 344 342 341 340 341 341 342 342 342 342 342 342 342 341 341 343 344 344 342 340 337
55 56 55 54 51 47 42 37 33 30 27 24 22 21 21 21 20 20 19 18 17 17 15 9 359 348 337 325 317 314 318 331 341 344 340 339 337 335 332 331 332 332 330 327 326 323 317 313 312 314 315 318 320 323 328 333 336 338 340 342 341 340 342 344 343 342 341 340 339 339 340 341 341 340 340 339 339 339 339 340 341 343 344 343 341 339
47 47 47 45 42 37 32 31 28 25 21 19 17 17 17 17 17 16 16 15 15 15 15 15 11 1 348 334 323 318 320 332 339 340 337 335 335 335 334 331 331 332 330 326 324 323 319 316 314 314 315 317 319 322 327 332 335 337 339 340 340 340 341 342 342 341 339 338 337 337 337 338 338 337 337 336 336 337 339 341 343 344 344 344 343 341
39 38 38 39 37 33 27 25 23 19 15 13 12 12 12 12 12 13 13 12 12 11 11 12 13 11 3 349 336 330 330 335 338 338 335 334 334 335 335 331 332 333 330 325 322 321 318 316 316 316 316 315 315 319 324 329 333 336 336 336 336 336 338 340 341 340 339 337 335 334 335 335 334 334 334 335 336 338 340 343 344 345 345 345 345 343
33 30 30 31 32 30 25 22 18 15 10 8 6 6 7 8 9 10 10 10 9 8 8 8 9 11 11 6 356 348 344 342 340 339 337 337 338 338 337 334 333 333 331 325 320 317 316 315 315 316 315 314 313 315 319 324 329 331 332 332 333 334 336 338 339 338 337 335 334 334 333 333 333 332 332 334 335 337 339 341 343 344 344 344 344 343
30 26 25 24 24 22 20 17 14 11 6 3 1 2 4 6 7 7 8 8 7 7 5 5 5 7 9 9 6 0 354 349 345 343 341 342 343 343 342 338 335 334 333 328 322 315 310 307 305 307 309 311 312 314 317 321 325 327 329 331 332 333 335 336 337 336 335 334 334 333 332 333 332 331 331 331 332 333 334 335 337 339 340 340 339 339
26 24 22 21 20 19 17 14 9 5 1 358 358 1 4 5 5 5 6 5 5 5 4 2 2 3 6 8 7 3 358 353 349 347 345 345 346 346 345 342 338 335 333 330 324 316 308 301 298 297 299 302 306 310 314 317 321 325 329 330 330 329 330 331 332 333 333 333 333 332 331 331 331 330 329 329 328 328 328 329 331 334 336 335 333 332
23 21 20 20 20 20 16 10 3 360 358 356 357 1 4 4 4 3 3 4 4 3 3 2 1 1 3 6 7 4 359 355 351 349 348 348 348 348 348 345 342 338 334 328 323 318 311 303 298 296 295 297 301 305 308 311 317 322 326 325 323 322 323 326 328 331 332 332 332 331 330 330 329 329 328 326 325 325 325 326 328 330 332 332 331 329
24 21 19 19 19 18 14 7 3 1 360 358 358 359 2 2 2 1 1 1 2 1 1 0 358 357 357 359 1 2 360 356 353 351 350 350 350 350 349 347 345 342 336 329 323 319 315 309 302 298 297 299 301 303 306 310 316 320 322 320 320 321 322 325 328 331 331 330 330 330 329 329 328 327 326 324 323 323 325 326 327 327 328 329 331 331
26 24 22 21 19 16 12 9 8 7 3 359 358 358 360 360 359 359 359 358 358 358 359 358 356 354 351 351 352 355 357 356 355 353 352 353 353 351 350 349 348 346 341 332 325 320 320 316 309 304 305 306 303 300 302 309 315 319 321 322 323 324 325 325 326 328 328 328 328 328 329 328 327 325 323 322 322 323 325 326 328 328 329 330 331 332
29 27 25 20 16 13 13 11 10 7 3 358 356 356 358 358 358 358 358 358 358 358 358 357 355 353 351 349 348 348 350 353 354 354 355 355 355 353 352 352 352 351 346 337 327 322 321 317 314 314 315 312 306 302 301 306 311 316 320 323 324 322 318 318 321 323 325 326 326 327 328 328 326 324 323 322 322 323 324 326 327 329 331 333 333 332
34 30 25 19 14 11 10 8 7 5 3 358 355 355 355 356 356 357 358 357 357 357 357 356 355 353 352 349 347 346 346 348 351 353 354 356 356 356 355 355 354 353 350 344 336 328 320 314 314 317 319 315 309 303 301 304 309 314 320 323 324 321 316 316 319 321 323 324 325 325 327 327 326 324 322 321 321 322 323 324 326 328 330 332 332 332
33 27 23 18 13 9 5 4 4 3 1 358 355 354 354 354 355 356 357 358 357 356 356 356 356 354 350 348 346 345 344 345 346 349 351 353 355 356 356 356 355 354 351 349 345 339 330 320 316 316 317 314 311 309 308 310 312 315 319 323 324 323 320 320 321 323 323 323 323 324 326 327 326 323 320 319 319 320 321 323 325 326 328 330 331 330
30 25 21 16 12 7 5 4 3 2 0 357 354 353 353 353 354 355 357 358 358 357 355 356 356 354 350 349 348 347 344 343 343 345 347 349 351 352 352 352 353 354 354 353 352 349 344 336 328 321 315 310 307 310 316 321 321 320 321 323 324 324 322 322 323 324 324 323 323 324 326 326 325 322 319 318 318 318 320 322 324 325 327 328 328 329
32 27 22 16 11 7 5 4 3 1 359 356 353 351 352 352 354 355 356 358 358 358 356 355 354 351 350 350 350 349 346 343 342 342 344 347 348 349 349 349 349 351 353 355 356 357 357 355 347 333 321 313 307 308 317 322 325 324 323 324 324 323 321 321 322 323 324 323 322 323 325 324 322 319 318 317 317 317 318 319 321 324 326 327 327 327
34 28 23 18 12 7 4 3 2 0 358 354 352 350 350 351 353 355 356 357 358 358 357 355 352 349 348 348 349 349 348 346 345 345 345 346 347 347 348 348 348 349 350 352 354 357 360 4 6 359 341 330 320 316 319 324 326 327 327 326 325 323 322 321 322 323 323 323 323 323 324 323 321 319 317 316 315 315 317 318 320 322 324 326 326 326
35 30 24 19 13 8 4 2 1 360 357 354 352 349 348 349 352 355 357 359 359 358 357 356 353 350 347 348 348 349 349 348 347 346 346 347 348 348 348 348 349 349 349 350 351 353 354 356 0 5 5 0 345 332 328 328 329 329 330 329 328 326 324 322 322 323 324 323 323 323 324 324 323 322 320 317 315 315 316 318 320 321 323 325 326 326
32 28 24 20 14 8 4 3 1 359 357 354 352 350 348 349 351 355 357 358 358 357 357 356 355 353 350 348 348 349 349 348 347 346 346 347 347 348 348 350 351 351 350 350 350 351 350 349 349 351 354 359 354 342 336 333 332 332 331 331 330 329 326 324 322 323 324 324 324 324 325 325 325 325 324 320 318 317 318 319 320 321 322 324 325 325